Home   Weather   San Pedro Sula   Past weeks
Flag for Honduras

Past Weather in San Pedro Sula, Honduras — Yesterday and Last 2 Weeks

Now
90 °F

Scattered clouds.


Feels Like: 96 °F
Forecast: N/A
Wind: 18 mph from Northeast

Location: La Mesa San Pedro Sula

Current Time: Jul 16, 2019 at 4:53:22 pm

Latest Report: Jul 16, 2019 at 4:00 pm


Visibility: N/A

Pressure: 29.86 "Hg

Humidity: 55%

Dew Point: 72 °F

Location of San Pedro SulaLocation

Past Weather in San Pedro Sula — Graph

°F

San Pedro Sula Temperature Yesterday

Maximum temperature yesterday: 93 °F (at 12:00 pm)
Minimum temperature yesterday: 75 °F (at 6:00 pm)
Average temperature yesterday: 82 °F

High & Low Weather Summary for the Past Weeks

 TemperatureHumidityPressure
High95 °F (Jul 5, 2:00 pm)100% (Jul 2, 5:00 am)30.01 "Hg (Jul 2, 5:00 am)
Low72 °F (Jul 8, 2:00 pm)39% (Jul 12, 1:00 pm)29.77 "Hg (Jul 11, 4:00 pm)
Average83 °F74%29.91 "Hg
* Reported Jul 1 3:00 pm — Jul 16 3:00 pm, San Pedro Sula. Weather by CustomWeather, © 2019

Note: Actual official high and low records may vary slightly from our data, if they occured in-between our weather recording intervals... More about our weather records

Advertising

San Pedro Sula Weather History for the Previous 24 Hours

Scroll right to see more
 ConditionsComfort  
Time TempWeatherWind HumidityBarometerVisibility
3:00 pm
Tue, Jul 16
91 °FScattered clouds.20 mph56%29.89 "HgN/A
2:00 pm91 °FScattered clouds.3 mph56%29.89 "HgN/A
1:00 pm91 °FScattered clouds.10 mph56%29.92 "HgN/A
12:00 pm90 °FScattered clouds.7 mph59%29.92 "HgN/A
11:00 am90 °FPassing clouds.5 mph55%29.95 "HgN/A
10:00 am86 °FPassing clouds.3 mph62%29.95 "HgN/A
9:00 am82 °FPartly sunny.3 mph70%29.95 "HgN/A
8:00 am79 °FPartly sunny.6 mph79%29.98 "HgN/A
7:00 am75 °FPartly sunny.6 mph89%29.95 "HgN/A
6:00 am73 °FPartly sunny.3 mph94%29.95 "HgN/A
5:00 am75 °FPassing clouds.No wind89%29.92 "HgN/A
4:00 am73 °FPassing clouds.3 mph94%29.92 "HgN/A
3:00 am75 °FPassing clouds.8 mph89%29.92 "HgN/A
2:00 am75 °FMild.N/A89%29.95 "HgN/A
1:00 am75 °FPassing clouds.No wind89%29.95 "HgN/A
12:00 am75 °FPassing clouds.5 mph89%29.95 "HgN/A
11:00 pm
Mon, Jul 15
75 °FPassing clouds.10 mph83%29.98 "HgN/A
10:00 pm75 °FPassing clouds.9 mph89%29.98 "HgN/A
9:00 pm75 °FPassing clouds.3 mph89%29.95 "HgN/A
8:00 pm75 °FPassing clouds.2 mph89%29.92 "HgN/A
7:00 pm75 °FLight rain. Partly cloudy.8 mph89%29.92 "HgN/A
6:00 pm75 °FThunderstorms. Broken clouds.12 mph94%29.92 "HgN/A
5:00 pm82 °FThunderstorms. Broken clouds.5 mph74%29.89 "HgN/A
4:00 pm81 °FThunderstorms. Broken clouds.9 mph84%29.86 "HgN/A
Weather by CustomWeather, © 2019

See weather overview

LIVE PARTIAL LUNAR ECLIPSE – Watch the eclipse as it happens